Weather History for Farmingdale, NY

Change the Weather History Date:

Tuesday, January 10, 2012

  Actual Average Record
Temperature  
Mean Temperature 38 °F -  
Max Temperature 46 °F 36 °F 55 °F (2000)
Min Temperature 30 °F 24 °F 1 °F (2004)
Degree Days  
Heating Degree Days 27    
Moisture  
Dew Point 25 °F    
Average Humidity 59    
Maximum Humidity 76    
Minimum Humidity 46    
Precipitation  
Precipitation 0.00 in - - ()
Sea Level Pressure  
Sea Level Pressure 29.94 in    
Wind  
Wind Speed 7 mph (West)    
Max Wind Speed 15 mph    
Max Gust Speed 22 mph    
Visibility 9 miles    
Events      
Averages and records for this station are not official NWS values.
T = Trace of Precipitation, MM = Missing Value Source: NWS Daily Summary

Daily Weather History Graph

Daily Weather History Graph

Search for Another Location

Airport:

Trip Planner

Search our weather history database for the weather conditions in past years. The results will help you decide how hot, cold, wet, or windy it might be!

Date:

Astronomy

Jan. 10, 2012 Rise Set
Actual Time 7:17 AM EST 4:44 PM EST
Civil Twilight 6:46 AM EST 5:15 PM EST
Nautical Twilight 6:12 AM EST 5:49 PM EST
Astronomical Twilight 5:39 AM EST 6:22 PM EST
Moon 6:34 PM EST (1/10) 7:53 AM EST (1/10)
Length of Visible Light 10h 28m
Length of Day
9h 27m
Full, 98% of the Moon is Illuminated
Jan 10
Full
Jan 16
Last Quarter
Jan 23
New
Jan 30
First Quarter
Feb 7
Full

Hourly Weather History & Observations

Time (EST) Temp. Windchill Dew Point Humidity Pressure Visibility Wind Dir Wind Speed Gust Speed Precip Events Conditions
12:53 AM 37.0 °F 33.3 °F 28.0 °F 70% 29.97 in 10.0 mi West 4.6 mph - N/A   Overcast
1:53 AM 36.0 °F 31.1 °F 23.0 °F 59% 29.96 in 10.0 mi WSW 5.8 mph - N/A   Mostly Cloudy
2:53 AM 35.1 °F 31.0 °F 21.9 °F 59% 29.95 in 10.0 mi WSW 4.6 mph - N/A   Overcast
3:53 AM 34.0 °F 31.0 °F 21.9 °F 61% 29.92 in 10.0 mi SSW 3.5 mph - N/A   Partly Cloudy
4:53 AM 32.0 °F 28.7 °F 21.9 °F 66% 29.89 in 10.0 mi SSW 3.5 mph - N/A   Clear
5:53 AM 30.9 °F 25.2 °F 23.0 °F 72% 29.90 in 10.0 mi West 5.8 mph - N/A   Clear
6:53 AM 30.9 °F 24.3 °F 24.1 °F 76% 29.91 in 9.0 mi West 6.9 mph - N/A   Clear
7:53 AM 33.1 °F 26.1 °F 26.1 °F 75% 29.92 in 6.0 mi West 8.1 mph - N/A   Haze
8:53 AM 35.1 °F 27.4 °F 28.0 °F 76% 29.94 in 5.0 mi West 10.4 mph - N/A   Haze
9:53 AM 37.9 °F 32.7 °F 28.0 °F 68% 29.94 in 5.0 mi West 6.9 mph - N/A   Haze
10:53 AM 42.1 °F 36.1 °F 28.0 °F 58% 29.93 in 6.0 mi WSW 10.4 mph - N/A   Haze
11:53 AM 45.0 °F 40.6 °F 27.0 °F 49% 29.88 in 9.0 mi NW 8.1 mph - N/A   Clear
12:53 PM 45.0 °F 39.3 °F 27.0 °F 49% 29.86 in 10.0 mi West 11.5 mph 17.3 mph N/A   Clear
1:53 PM 45.0 °F 39.3 °F 27.0 °F 49% 29.87 in 10.0 mi WNW 11.5 mph - N/A   Clear
2:53 PM 46.0 °F 39.6 °F 26.1 °F 46% 29.88 in 10.0 mi WNW 15.0 mph 21.9 mph N/A   Mostly Cloudy
3:53 PM 45.0 °F 40.1 °F 26.1 °F 48% 29.90 in 10.0 mi NW 9.2 mph 19.6 mph N/A   Overcast
4:53 PM 45.0 °F 40.6 °F 26.1 °F 48% 29.93 in 10.0 mi WNW 8.1 mph - N/A   Overcast
5:53 PM 44.1 °F 39.0 °F 25.0 °F 47% 29.96 in 10.0 mi NW 9.2 mph 18.4 mph N/A   Mostly Cloudy
6:53 PM 43.0 °F 38.8 °F 26.1 °F 51% 29.98 in 10.0 mi WNW 6.9 mph - N/A   Mostly Cloudy
7:53 PM 42.1 °F 36.1 °F 25.0 °F 51% 29.98 in 10.0 mi NW 10.4 mph 17.3 mph N/A   Clear
8:53 PM 41.0 °F 36.4 °F 24.1 °F 51% 29.99 in 10.0 mi NNW 6.9 mph - N/A   Clear
9:53 PM 39.9 °F 35.1 °F 24.1 °F 53% 30.00 in 10.0 mi NNW 6.9 mph - N/A   Clear
10:53 PM 35.6 °F 32.8 °F 24.8 °F 65% 30.00 in 10.0 mi West 3.5 mph - N/A   Clear
11:53 PM 34.0 °F 29.8 °F 25.0 °F 70% 30.00 in 10.0 mi West 4.6 mph - N/A   Clear